User: anonymous   Login
Location: 相模原市立博物館
(35.5593°N, 139.3931°E)
Time: 14:29:36
(UTC+09:00)
Language:

CAS-6 - Orbit

View from above orbital plane
View from above orbital plane
View from above satellite
View from above satellite

Ground track
Ground track

The orbit data is extracted from the following two-line orbital elements,

1 44881U 19093C   22026.82399551  .00000257  00000-0  39507-4 0  9993
2 44881  97.9061 108.0123 0013742 289.6110  70.3605 14.81549458113801
Epoch (UTC): 26 January 2022 19:46:33
Eccentricity: 0.0013742
inclination: 97.9061°
perigee height: 615 km
apogee height: 634 km
right ascension of ascending node: 108.0123°
argument of perigee: 289.6110°
revolutions per day: 14.81549458
mean anomaly at epoch: 70.3605°
orbit number at epoch: 11380

The dashed part of the orbit path shows where the satellite is in the earth's shadow,  

DLR